Weather History for Colorado Springs, CO

Change the Weather History Date:

Tuesday, October 8, 2013

  Actual Average Record
Temperature  
Mean Temperature 62 °F 52 °F  
Max Temperature 77 °F 66 °F 83 °F (1958)
Min Temperature 47 °F 38 °F 21 °F (1946)
Degree Days  
Heating Degree Days 3 13  
Month to date heating degree days 85 94  
Since 1 July heating degree days 168 284  
Cooling Degree Days 0 0  
Month to date cooling degree days 0 0  
Year to date cooling degree days 694 454  
Growing Degree Days 12 (Base 50)    
Moisture  
Dew Point 22 °F    
Average Humidity 27    
Maximum Humidity 42    
Minimum Humidity 11    
Precipitation  
Precipitation 0.00 in 0.02 in 0.40 in (2006)
Month to date precipitation 0.03 0.22  
Year to date precipitation 18.49 15.20  
Snow  
Snow 0.00 in 0.00 in 6.10 in (1990)
Month to date snowfall 0.0 0.4  
Since 1 July snowfall T 0.6  
Since 1 September snowfall T 0.6  
Snow Depth 0.00 in    
Sea Level Pressure  
Sea Level Pressure 29.71 in    
Wind  
Wind Speed 7 mph (ENE)    
Max Wind Speed 22 mph    
Max Gust Speed 26 mph    
Visibility 10 miles    
Events      
T = Trace of Precipitation, MM = Missing Value Source: NWS Daily Summary

Daily Weather History Graph

Daily Weather History Graph

Search for Another Location

Airport:

Trip Planner

Search our weather history database for the weather conditions in past years. The results will help you decide how hot, cold, wet, or windy it might be!

Date:

Astronomy

Oct. 08, 2013 Rise Set
Actual Time 7:01 AM MDT 6:30 PM MDT
Civil Twilight 6:34 AM MDT 6:56 PM MDT
Nautical Twilight 6:04 AM MDT 7:27 PM MDT
Astronomical Twilight 5:33 AM MDT 7:58 PM MDT
Moon 10:56 AM MDT (10/8) 9:11 PM MDT (10/8)
Length of Visible Light 12h 21m
Length of Day
11h 28m
Waxing Crescent, 16% of the Moon is Illuminated
Oct 8
Waxing Crescent
Oct 11
First Quarter
Oct 18
Full
Oct 26
Last Quarter
Nov 3
New

Hourly Weather History & Observations

Time (MDT) Temp. Dew Point Humidity Pressure Visibility Wind Dir Wind Speed Gust Speed Precip Events Conditions
12:54 AM 50.0 °F 25.0 °F 38% 29.83 in 10.0 mi NNE 6.9 mph - N/A   Scattered Clouds
1:54 AM 48.0 °F 27.0 °F 44% 29.82 in 10.0 mi North 6.9 mph - N/A   Scattered Clouds
2:54 AM 52.0 °F 25.0 °F 35% 29.77 in 10.0 mi NNE 6.9 mph - N/A   Scattered Clouds
3:54 AM 53.1 °F 24.1 °F 32% 29.75 in 10.0 mi NE 4.6 mph - N/A   Mostly Cloudy
4:54 AM 48.0 °F 25.0 °F 41% 29.77 in 10.0 mi ENE 3.5 mph - N/A   Scattered Clouds
5:54 AM 48.0 °F 26.1 °F 42% 29.79 in 10.0 mi NE 4.6 mph - N/A   Mostly Cloudy
6:54 AM 50.0 °F 25.0 °F 38% 29.79 in 10.0 mi NNE 9.2 mph - N/A   Mostly Cloudy
7:54 AM 54.0 °F 24.1 °F 31% 29.79 in 10.0 mi WNW 4.6 mph - N/A   Mostly Cloudy
8:54 AM 57.9 °F 26.1 °F 30% 29.76 in 10.0 mi Calm Calm - N/A   Mostly Cloudy
9:54 AM 66.0 °F 28.0 °F 24% 29.74 in 10.0 mi Calm Calm - N/A   Mostly Cloudy
10:54 AM 72.0 °F 16.0 °F 12% 29.72 in 10.0 mi ESE 10.4 mph - N/A   Mostly Cloudy
11:54 AM 71.1 °F 19.9 °F 14% 29.72 in 10.0 mi ESE 9.2 mph - N/A   Mostly Cloudy
12:54 PM 73.9 °F 21.0 °F 14% 29.69 in 10.0 mi East 3.5 mph - N/A   Mostly Cloudy
1:54 PM 75.0 °F 19.9 °F 13% 29.66 in 10.0 mi WSW 5.8 mph - N/A   Mostly Cloudy
2:54 PM 75.9 °F 19.9 °F 12% 29.64 in 10.0 mi SSW 10.4 mph 19.6 mph N/A   Mostly Cloudy
3:54 PM 73.0 °F 18.0 °F 12% 29.63 in 10.0 mi South 18.4 mph 26.5 mph N/A   Mostly Cloudy
4:54 PM 75.0 °F 17.1 °F 11% 29.63 in 10.0 mi SW 17.3 mph 21.9 mph N/A   Mostly Cloudy
5:54 PM 71.1 °F 18.0 °F 13% 29.65 in 10.0 mi SSW 11.5 mph - N/A   Scattered Clouds
6:54 PM 64.0 °F 19.0 °F 18% 29.68 in 10.0 mi South 8.1 mph - N/A   Scattered Clouds
7:54 PM 68.0 °F 18.0 °F 15% 29.66 in 10.0 mi Calm Calm - N/A   Clear
8:54 PM 64.9 °F 18.0 °F 16% 29.65 in 10.0 mi SW 4.6 mph - N/A   Clear
9:54 PM 63.0 °F 21.0 °F 20% 29.64 in 10.0 mi West 8.1 mph - N/A   Clear
10:54 PM 60.1 °F 21.9 °F 23% 29.64 in 10.0 mi WSW 6.9 mph - N/A   Clear
11:54 PM 57.0 °F 23.0 °F 27% 29.67 in 10.0 mi NE 6.9 mph - N/A   Clear